DW8425 Weather Reports


Display with metric or nautical units.
time (UTC)temp
F
wind
direction
speed
MPH
gust
MPH
rain 1hr
in
rain 24hr
in
rain mn
in
humidity
%
barometer
mb
20260507234548 63 69 2.0 9.0 0.00 0.00 0.00 28 1009.0
20260507233044 63 355 3.0 6.0 0.00 0.00 0.00 26 1009.1
20260507231546 63 320 2.0 8.0 0.00 0.00 0.00 25 1009.1
20260507230041 63 342 2.0 8.0 0.00 0.00 0.00 28 1009.2
20260507224541 62 335 2.0 10.0 0.00 0.00 0.00 26 1009.3
20260507223039 63 340 4.0 9.0 0.00 0.00 0.00 25 1009.6
20260507221538 63 326 3.0 8.0 0.00 0.00 0.00 28 1009.6
20260507220037 63 342 3.0 8.0 0.00 0.00 0.00 27 1009.8
20260507214539 63 339 3.0 7.0 0.00 0.00 0.00 25 1009.9
20260507213039 63 336 3.0 8.0 0.00 0.00 0.00 28 1010.0
20260507211545 62 326 3.0 15.0 0.00 0.00 0.00 25 1010.1
20260507210034 64 360 3.0 8.0 0.00 0.00 0.00 24 1010.4
20260507204529 62 38 2.0 9.0 0.00 0.00 0.00 26 1010.5
20260507203029 63 293 3.0 8.0 0.00 0.00 0.00 25 1010.4
20260507201526 62 236 2.0 7.0 0.00 0.00 0.00 27 1010.5
20260507200024 62 248 2.0 8.0 0.00 0.00 0.00 29 1010.7
20260507194522 61 304 0.0 8.0 0.00 0.00 0.00 27 1010.8
20260507193022 61 171 1.0 5.0 0.00 0.00 0.00 27 1010.9
20260507191520 61 313 2.0 4.0 0.00 0.00 0.00 26 1010.9
20260507190018 60 321 2.0 5.0 0.00 0.00 0.00 27 1011.1
20260507184516 60 246 1.0 4.0 0.00 0.00 0.00 29 1011.2
20260507183014 60 19 1.0 7.0 0.00 0.00 0.00 28 1011.3
20260507181514 59 242 1.0 4.0 0.00 0.00 0.00 30 1011.3
20260507180013 58 342 3.0 7.0 0.00 0.00 0.00 31 1011.2
20260507174514 58 319 1.0 5.0 0.00 0.00 0.00 34 1011.3
20260507173006 57 190 1.0 7.0 0.00 0.00 0.00 36 1011.5
20260507171503 56 308 2.0 4.0 0.00 0.00 0.00 38 1011.5
20260507170002 55 222 1.0 4.0 0.00 0.00 0.00 42 1011.5
20260507164601 55 326 2.0 7.0 0.00 0.00 0.00 40 1011.5
20260507163058 55 335 3.0 6.0 0.00 0.00 0.00 42 1011.5
20260507161555 53 195 0.0 4.0 0.00 0.00 0.00 46 1011.6
20260507160111 51 244 0.0 3.0 0.00 0.00 0.00 54 1011.8
20260507154545 49 338 0.0 2.0 0.00 0.00 0.00 63 1011.9
20260507153040 46 145 0.0 2.0 0.00 0.00 0.00 72 1012.1
20260507151536 44 142 0.0 2.0 0.00 0.00 0.00 77 1012.4
20260507150038 41 140 0.0 1.0 0.00 0.00 0.00 81 1012.6
20260507144535 39 140 0.0 2.0 0.00 0.00 0.00 86 1012.8
20260507143034 37 140 0.0 1.0 0.00 0.00 0.00 90 1012.9
20260507141534 35 140 0.0 2.0 0.00 0.00 0.00 91 1012.9
20260507140044 33 140 0.0 1.0 0.00 0.00 0.00 93 1012.8
20260507134533 32 140 0.0 1.0 0.00 0.00 0.00 92 1012.8
20260507133034 32 140 0.0 1.0 0.00 0.00 0.00 91 1012.6
20260507131600 32 140 0.0 1.0 0.00 0.00 0.00 91 1012.5
20260507130030 33 140 0.0 2.0 0.00 0.00 0.00 90 1012.5
20260507124531 33 140 0.0 0.0 0.00 0.00 0.00 92 1012.4
20260507123033 33 140 0.0 1.0 0.00 0.00 0.00 88 1012.3
20260507121526 33 140 0.0 1.0 0.00 0.00 0.00 89 1012.5
20260507120030 34 140 0.0 1.0 0.00 0.00 0.00 88 1012.4
20260507114522 34 140 0.0 1.0 0.00 0.00 0.00 89 1012.5
20260507113049 35 140 0.0 1.0 0.00 0.00 0.00 87 1012.6
20260507111518 35 140 0.0 0.0 0.00 0.00 0.00 84 1012.6
20260507110015 36 140 0.0 2.0 0.00 0.00 0.00 84 1012.7
20260507104517 37 142 0.0 0.0 0.00 0.00 0.00 83 1012.7
20260507103010 38 146 0.0 2.0 0.00 0.00 0.00 83 1012.8
20260507101508 38 153 0.0 1.0 0.00 0.00 0.00 83 1012.9
20260507100009 38 167 0.0 0.0 0.00 0.00 0.00 82 1013.0
20260507094504 38 168 0.0 0.0 0.00 0.00 0.00 82 1013.2
20260507093003 38 171 0.0 1.0 0.00 0.00 0.00 81 1013.1
20260507091501 39 169 0.0 1.0 0.00 0.00 0.00 79 1013.1
20260507090059 39 157 0.0 2.0 0.00 0.00 0.00 79 1013.1
20260507084602 39 142 0.0 1.0 0.00 0.00 0.00 78 1013.1
20260507083057 39 141 0.0 3.0 0.00 0.00 0.00 77 1013.2
20260507081554 40 137 0.0 2.0 0.00 0.00 0.00 77 1013.4
20260507080053 40 136 0.0 2.0 0.00 0.00 0.00 76 1013.5
20260507074552 41 140 0.0 0.0 0.00 0.00 0.00 76 1013.7
20260507073053 41 140 0.0 0.0 0.00 0.00 0.00 75 1013.6
20260507071548 41 140 0.0 1.0 0.00 0.00 0.00 75 1013.7
20260507070057 41 162 1.0 2.0 0.00 0.00 0.00 75 1013.7
20260507064547 42 162 0.0 0.0 0.00 0.00 0.00 73 1013.7
20260507063041 42 162 0.0 3.0 0.00 0.00 0.00 71 1013.7
20260507061541 43 128 0.0 1.0 0.00 0.00 0.00 70 1013.7
20260507060044 44 128 0.0 1.0 0.00 0.00 0.00 69 1013.7
20260507054540 44 136 0.0 3.0 0.00 0.00 0.00 68 1013.6
20260507053038 45 145 0.0 0.0 0.00 0.00 0.00 66 1013.5
20260507051535 45 145 0.0 5.0 0.00 0.00 0.00 66 1013.5
20260507050058 45 140 0.0 1.0 0.00 0.00 0.00 66 1013.3
20260507044546 46 142 0.0 5.0 0.00 0.00 0.00 65 1013.4
20260507043035 47 72 0.0 2.0 0.00 0.00 0.00 63 1013.2
20260507041533 47 76 0.0 1.0 0.00 0.00 0.00 62 1013.2
20260507040033 48 60 0.0 2.0 0.00 0.00 0.00 61 1013.2
20260507034538 48 42 0.0 2.0 0.00 0.00 0.00 59 1013.3
20260507033040 49 85 0.0 2.0 0.00 0.00 0.00 59 1013.0
20260507031534 50 46 0.0 2.0 0.00 0.00 0.00 58 1012.9
20260507030037 52 350 0.0 1.0 0.00 0.00 0.00 55 1012.9
20260507024540 54 349 0.0 1.0 0.00 0.00 0.00 51 1012.9
20260507023031 55 349 0.0 3.0 0.00 0.00 0.00 48 1013.0
20260507021545 55 310 0.0 3.0 0.00 0.00 0.00 48 1013.1
20260507020033 56 321 1.0 7.0 0.00 0.00 0.00 46 1013.1
20260507014529 57 360 1.0 7.0 0.00 0.00 0.00 45 1013.0
20260507013034 57 360 2.0 6.0 0.00 0.00 0.00 45 1012.9
20260507011532 57 360 2.0 7.0 0.00 0.00 0.00 44 1013.1
20260507010039 58 286 1.0 7.0 0.00 0.00 0.00 43 1013.1
20260507004528 59 196 1.0 8.0 0.00 0.00 0.00 40 1012.9
20260507003027 60 311 1.0 5.0 0.00 0.00 0.00 38 1013.0
20260507001530 60 290 2.0 7.0 0.00 0.00 0.00 37 1012.7
20260507000032 61 237 2.0 6.0 0.00 0.00 0.00 36 1012.6